Location: Krakow
(50.0830°N, 19.9170°E)
Time: 20:14:39
(UTC+01:00)

Altair - Pass Details

Date: 02 December 2023
Orbit: 1501 x 1682 km, 47.2° (Epoch: 03 March)

Event Time Altitude Azimuth Distance (km) Brightness Sun altitude
Rises 15:35:55 0° 288° (WNW) 4,671 10.6 -0.2°
Reaches altitude 10° 15:39:34 10° 277° (W) 3,671 10.3 -0.7°
Maximum altitude 15:46:41 26° 225° (SW) 2,609 10.0 -1.6°
Drops below altitude 10° 15:53:47 10° 173° (S) 3,650 9.9 -2.6°
Sets 15:57:25 0° 162° (SSE) 4,639 10.2 -3.1°
